Starlink 31868

operational
NORAD ID: 59783 Int'l Des: 2024-093 Owner: SPXS Country: US Constellation: starlink
LEOCIRCULAR

About Starlink 31868

Description loading...

Live Position

Loading 3D Globe...

Upcoming Passes

Altitude History

Altitude vs Time

uPlot chart will show altitude changes over time

Two-Line Element Set

1 59783U 24093B 25260.95105994 -.00001006 00000-0 -27045-4 0 9998
2 59783 43.0019 101.2054 0000796 264.8155 95.2606 15.27569380 76318
Epoch: Sep 17, 2025 • Age: 9 hours

Current Status

Altitude 491.5 km
Velocity 7.62 km/s
Sub-Earth Point -32.03°S, 60.61°W
Launch Date May 18, 2024
Age 1.3 years
Type internet

Technical Details

Classification Payload
Mass 730.00 kg
Dry Mass 700.00 kg
Total Mass 730.00 kg
Length 0.30 m
Diameter 4.10 m
Span 29.00 m
Shape Box + pan
Manufacturer SPXS
Bus Type Starlink V2M
Phase Status In Orbit
Owner/State SPXS/US

Large Constellations

Loading constellations...